Date,TemperatureHighF,TemperatureAvgF,TemperatureLowF,DewpointHighF,DewpointAvgF,DewpointLowF,HumidityHigh,HumidityAvg,HumidityLow,PressureMaxIn,PressureMinIn,WindSpeedMaxMPH,WindSpeedAvgMPH,GustSpeedMaxMPH,PrecipitationSumIn
2013-12-1,52,39,26,28,25,20,78,59,40,30.21,29.94,5,0,8,0.00
2013-12-2,61,45,36,38,32,25,77,60,37,29.94,29.65,4,0,8,0.00
2013-12-3,58,45,35,46,34,29,98,67,40,29.71,29.59,3,0,5,0.00
2013-12-4,38,30,19,38,24,2,100,79,46,30.12,29.62,11,2,11,0.00
2013-12-5,19,16,13,7,0,-3,60,47,44,30.45,30.12,8,3,13,0.00
2013-12-6,15,12,7,-2,-6,-10,45,45,45,30.71,30.45,7,2,9,0.00
2013-12-7,19,11,1,1,-6,-16,45,45,44,30.80,30.45,6,2,10,0.00
2013-12-8,21,18,14,14,9,-2,77,67,44,30.45,30.06,8,2,10,0.00
2013-12-9,14,8,4,8,2,-2,76,76,76,30.45,30.24,6,1,8,0.00
2013-12-10,32,23,9,13,6,-1,76,49,41,30.36,30.21,6,1,7,0.00
2013-12-11,28,17,5,17,1,-12,63,50,44,30.68,30.27,6,1,10,0.00
2013-12-12,40,24,6,19,6,-10,52,46,42,30.62,30.21,5,0,6,0.00
2013-12-13,37,32,24,32,23,13,99,71,44,30.21,29.94,5,0,6,0.04
2013-12-14,32,24,20,32,16,9,100,71,58,30.27,30.00,0,0,4,0.00
2013-12-15,40,29,20,24,18,11,72,63,47,30.27,30.03,3,0,6,0.00
2013-12-16,43,32,22,36,22,17,96,69,47,30.24,30.03,5,0,6,0.00
2013-12-17,44,31,23,29,17,8,86,59,39,30.36,30.24,8,1,12,0.00
2013-12-18,63,47,23,36,25,11,62,43,37,30.27,29.83,5,1,9,0.00
2013-12-19,56,47,36,42,33,26,74,59,40,29.85,29.74,4,0,6,0.00
2013-12-20,35,23,20,29,19,14,95,85,76,30.03,29.83,6,0,8,0.00
2013-12-21,26,23,20,21,17,14,88,76,69,30.00,29.77,0,0,0,0.00
2013-12-22,24,20,11,21,13,2,92,76,60,30.45,29.83,0,0,0,0.00
2013-12-23,11,7,-3,2,-2,-11,66,66,66,30.65,30.42,0,0,0,0.00
2013-12-24,28,13,-4,21,2,-13,74,62,46,30.62,30.27,0,0,0,0.00
2013-12-25,38,28,19,25,19,11,83,68,50,30.39,30.30,4,0,8,0.00
2013-12-26,45,31,15,29,18,10,84,60,41,30.39,30.21,5,0,8,0.20
2013-12-27,50,37,24,27,22,16,79,55,40,30.39,30.21,3,0,5,0.00
2013-12-28,54,43,32,29,25,20,66,49,39,30.21,29.91,8,1,13,0.00
2013-12-29,32,14,9,20,-1,-8,66,52,45,30.39,30.06,11,4,13,0.00
2013-12-30,29,19,8,10,0,-9,50,44,41,30.36,30.18,4,0,7,0.00
2013-12-31,52,30,14,28,14,4,70,53,39,30.36,30.06,4,0,10,0.00